Tracking 19212 objects as of 16-Jul-2018
HD Live streaming from Space Station
objects crossing your sky now

HETE 2

Track HETE 2 now!
10-day predictions
HETE 2 is classified as:


NORAD ID: 26561
Int'l Code: 2000-061A
Perigee: 538.0 km
Apogee: 562.8 km
Inclination: 2.0 °
Period: 95.5 minutes
Semi major axis: 6921 km
RCS: 0.631 m2 (medium)
Launch date: October 9, 2000
Source: United States (US)
Launch site: Kwajalein (KWAJ)

Designed to detect and localize gamma-ray bursts.
aabbcc
Your satellite tracking list
Your tracking list is empty




NASA's NSSDC Master Catalog

Two Line Element Set (TLE):
1 26561U 00061A   18195.55955785  .00001212  00000-0  20162-4 0  9991
2 26561   1.9504 340.4288 0017915 106.7637 253.4372 15.07683027974165
Source of the keplerian elements: AFSPC